Regional Weather Roundup
Issued by NWS

Home | Current Version | Previous Version | Graphics & Text | Print | Product List | Glossary On
Versions: 1 2 3 4 5 6 7 8 9 10 11 12 13 14 15 16 17 18 19 20 21 22 23 24 25 26 27 28 29 30 31 32 33 34 35 36 37 38 39 40 41 42 43 44 45 46 47 48 49 50
000
ASUS43 KMPX 270801
RWRMN
WEATHER ROUNDUP FOR MINNESOTA
NATIONAL WEATHER SERVICE TWIN CITIES/CHANHASSEN MN
200 AM CST THU NOV 27 2014


NOTE: "FAIR" INDICATES FEW OR NO CLOUDS BELOW 12,000 FEET WITH NO
SIGNIFICANT WEATHER AND/OR OBSTRUCTIONS TO VISIBILITY. N/A MEANS
CURRENT SKY AND/OR WEATHER CONDITIONS ARE NOT AVAILABLE.

MNZ060>063-068>070-270900-
   Twin Cities Metro

CITY           SKY/WX    TMP DP  RH WIND       PRES   REMARKS
TWIN CITIES    CLEAR      5  -3  69 N9        30.45R WCI  -9
ST PAUL        CLEAR      7  -2  66 NW14      30.46R WCI -10
CRYSTAL        CLEAR      6  -3  66 N10       30.45R WCI  -9
BLAINE         CLEAR      7   0  72 NW9       30.44R WCI  -7
LAKEVILLE      PTCLDY     3  -2  78 NW8       30.42R WCI -10
EDEN PRAIRIE   CLEAR      6  -4  63 N13       30.43R WCI -10
SOUTH ST PAUL  CLEAR      8  -2  62 N10       30.44R WCI  -6
LAKE ELMO      FAIR       9   0  66 N10       30.44R WCI  -6
$$
MNZ001>005-007-008-013>017-022>024-027-028-270900-
   Northwest Minnesota

CITY           SKY/WX    TMP DP  RH WIND       PRES   REMARKS
BEMIDJI        MOCLDY   -13 -17  80 W5        30.46S WCI -25
HALLOCK        MOCLDY   -17 -20  83 CALM      30.55S
ROSEAU         FAIR      -9 -17  70 W6        30.51S WCI -23
WARROAD        PTCLDY   -13 -18  77 W5        30.50R WCI -25
THIEF RVR FALL MOCLDY   -11 -17  77 CALM      30.51S
CROOKSTON      MOCLDY   -11 -17  77 CALM      30.57R
FOSSTON        PTCLDY   -18 -26  69 CALM      30.50S
DETROIT LAKES  PTCLDY    -9 -13  84 NW5       30.50R WCI -21
MOORHEAD       PTCLDY   -11 -15  84 N3        30.55F
PARK RAPIDS    PTCLDY   -14 -18  82 NW6       30.45S WCI -28
MAHNOMEN       FAIR     -12 -16  82 NW3       30.50S
$$
MNZ006-009>011-018-025>026-270900-
   North Central Minnesota

CITY           SKY/WX    TMP DP  RH WIND       PRES   REMARKS
BAUDETTE       PTCLDY   -13 -17  82 CALM      30.46F
FLAG ISLAND    PTCLDY   -15 -18  84 NW6       30.48R WCI -29
INTL FALLS     PTCLDY   -14 -18  82 NW3       30.44F
WASKISH        PTCLDY    -9 -13  84 CALM      30.47S
BIG FORK       CLEAR     -9 -15  77 CALM      30.43S
LONGVILLE      CLEAR     -8 -11  84 CALM      30.45R
GRAND RAPIDS   CLEAR     -8 -11  84 NW7       30.41R WCI -22
CRANE LAKE     CLEAR     -6 -11  77 NW5       30.46R WCI -17
ORR            PTCLDY   -15 -20  76 CALM      30.39R
COOK           PTCLDY   -17 -20  83 CALM      30.41S
WALKER         FAIR     -11 -15  81 W3        30.46R
$$
MNZ012-019>021-037-270900-
   Northeast Minnesota

CITY           SKY/WX    TMP DP  RH WIND       PRES   REMARKS
DULUTH         CLEAR     -4 -10  75 NW7       30.36R WCI -18
ELY            CLEAR     -9 -15  77 CALM      30.38R
HIBBING        PTCLDY    -7 -13  75 N7        30.40S WCI -21
EVELETH        PTCLDY    -2  -8  78 N3        30.39S
DULUTH HARBOR  CLEAR      3  -4  72 N16       30.47R WCI -16
TWO HARBORS    PTCLDY     0  -8  71 N3        30.36S
SILVER BAY     CLEAR      0  -8  71 N7        30.36R WCI -13
GRAND MARAIS     N/A     -1 -11  62 N20G35    30.38R WCI -23
G MARAIS ARPRT PTCLDY    -9 -17  70 N10       30.28R WCI -28
$$
MNZ029>031-032-039>041-046>048-054>057-064-270900-
   West Central Minnesota

CITY           SKY/WX    TMP DP  RH WIND       PRES   REMARKS
FERGUS FALLS   PTCLDY    -8 -15  71 NE3       30.55F
WHEATON        PTCLDY    -8 -11  84 NW6       30.55F WCI -21
MORRIS         PTCLDY    -8 -11  84 NW8       30.50S WCI -23
ALEXANDRIA     CLEAR     -4  -9  79 NW10      30.47R WCI -21
ELBOW LAKE     FAIR      -8 -12  83 N5        30.49F WCI -20
WADENA         PTCLDY    -8 -11  84 NW5       30.47R WCI -19
GLENWOOD       PTCLDY    -6  -9  84 NW6       30.47S WCI -18
APPLETON       PTCLDY    -4  -9  77 NW10      30.53R WCI -21
BENSON         PTCLDY    -8 -11  84 N6        30.50S WCI -21
ORTONVILLE     FAIR      -6  -9  84 NW7       30.52S WCI -20
MADISON        PTCLDY    -4  -9  77 NW8       30.53S WCI -19
WILLMAR        FAIR      -2  -9  71 NW7       30.48S WCI -16
$$
MNZ033>034-036-042>043-049>051-058-059-270900-
   Central Minnesota

CITY           SKY/WX    TMP DP  RH WIND       PRES   REMARKS
ST CLOUD       CLEAR      1  -7  68 NW8       30.46S WCI -13
SAUK CENTRE    FAIR      -5  -9  81 N7        30.47S WCI -19
PAYNESVILLE    CLEAR     -6 -10  81 W7        30.48R WCI -20
AITKIN         CLEAR     -2  -9  71 CALM      30.43F
PINE RIVER     CLEAR     -6  -9  84 NW5       30.48R WCI -17
BRAINERD       CLEAR     -3  -8  79 N6        30.46R WCI -15
STAPLES        CLEAR     -8 -11  84 NW6       30.46S WCI -21
LONG PRAIRIE   FAIR      -6  -9  84 NW5       30.46S WCI -17
LITTLE FALLS   CLEAR     -2  -8  78 NW5       30.48R WCI -12
LITCHFIELD     FAIR       0  -6  78 NW7       30.47R WCI -13
BUFFALO        CLEAR      4  -4  71 N9        30.47S WCI -11
MAPLE LAKE     CLEAR      2  -4  77 NW6       30.47R WCI  -9
$$
MNZ037-044-045-052-053-270900-
   East Central Minnesota

CITY           SKY/WX    TMP DP  RH WIND       PRES   REMARKS
PRINCETON      FAIR       1  -6  71 NW5       30.46R WCI  -8
MORA           CLEAR      0  -6  78 N5        30.47R WCI -10
CAMBRIDGE      CLEAR      3  -6  66 NW6       30.44R WCI  -8
RUSH CITY      MOCLDY     2  -4  75 NW7       30.46R WCI -10
MOOSE LAKE     CLEAR      0  -6  78 NW6       30.43R WCI -12
HINCKLEY       FAIR       1  -4  78 CALM      30.44R
CLOQUET        CLEAR     -4  -9  77 NW8       30.39R WCI -19
MCGREGOR       CLEAR     -4  -8  84 NW6       30.44R WCI -16
$$
MNZ071>073-080-081-089-090-097-098-270900-
   Southwest Minnesota

CITY           SKY/WX    TMP DP  RH WIND       PRES   REMARKS
MONTEVIDEO     PTCLDY    -6  -9  84 N7        30.53R WCI -20
GRANITE FALLS  PTCLDY    -4  -8  81 NW12      30.53S WCI -22
CANBY          PTCLDY    -4  -8  84 NW8       30.54R WCI -20
MARSHALL       PTCLDY    -4  -9  77 NW13      30.49R WCI -23
REDWOOD FALLS  PTCLDY    -3  -8  79 NW9       30.51R WCI -19
OLIVIA         PTCLDY    -2  -8  78 NW9       30.49R WCI -18
PIPESTONE      CLEAR     -2  -8  78 N7        30.44R WCI -16
WINDOM         PTCLDY    -2  -8  78 NW14      30.45R WCI -21
WORTHINGTON    PTCLDY    -2  -9  71 N12       30.44R WCI -20
JACKSON        PTCLDY     0  -8  71 NW18      30.44S WCI -22
TRACY          PTCLDY    -3  -8  81 NW10      30.48S WCI -20
SLAYTON        PTCLDY    -3  -8  79 NW8       30.45S WCI -18
$$
MNZ065>067-074>077-082>085-091>093-270900-
   South Central Minnesota

CITY           SKY/WX    TMP DP  RH WIND       PRES   REMARKS
MANKATO        PTCLDY     1  -8  66 NW9       30.44R WCI -14
NEW ULM        CLEAR     -2  -8  78 NW12      30.47R WCI -20
ST JAMES       CLEAR     -2  -8  78 NW14      30.48R WCI -21
FAIRMONT       PTCLDY     0  -8  71 NW18      30.43S WCI -22
GLENCOE        CLEAR      3  -3  74 NW7       30.45R WCI  -9
FARIBAULT      PTCLDY     5  -4  66 NW7       30.41R WCI  -7
OWATONNA       PTCLDY     1  -6  71 NW6       30.40R WCI -10
WASECA         PTCLDY     3  -6  66 NW9       30.43R WCI -11
ALBERT LEA     PTCLDY     7   3  85 NW10G16   30.38R WCI  -8
$$
MNZ078>079-086>088-094>096-270900-
   Southeast Minnesota

CITY           SKY/WX    TMP DP  RH WIND       PRES   REMARKS
ROCHESTER      MOCLDY    14   8  77 NW16      30.34R WCI  -2
RED WING       PTCLDY    12   1  62 N8        30.41R WCI   1
STANTON        PTCLDY     8  -1  66 NW9       30.41R WCI  -6
DODGE CENTER   MOCLDY    10   7  85 NW14      30.35R WCI  -5
WINONA         FLURRIES  21  18  86 NW16      30.37R WCI   7
AUSTIN         FLURRIES  12   7  79 NW15      30.36R WCI  -4
PRESTON        FLURRIES  17  13  84 NW12G17   30.32R WCI   4
$$
ABBREVIATIONS USED IN REMARKS
   TC - TEMPERATURES IN CELSIUS
  WCI - WIND CHILL INDEX
   HX - HEAT INDEX
  VSB - VISIBILITY
$$



USA.gov is the U.S. government's official web portal to all federal, state and local government web resources and services.